[TLELIST]

Mailing List Information:

  • This mailing list is a public mailing list - anyone may join or leave, at any time.

  • This mailing list is announce-only.

International Space Station (ISS) / Hubble Space Telescope (HST) / Chandra X-Ray Observatory Orbital Data via EMAIL

Privacy Policy:

Private list

Archives:

[TLELIST] Current TLEs

Sent September 20th 2018

HST 1 20580U 90037B 18263.29216795 .00000426 00000-0 15100-4 0 9998 2 20580 28.4688 206.3838 0002925 85.6011 42.6232 15.09096320359856 ISS (ZARYA) 1 25544U 98067A 18263.26339273 .00001341 00000-0 27748-4 0 9996 2 25544 51.6409 264.8979 0004580 175.0379 252.4459 15.53869451133309 CXO 1 25867U 99040B 18264.49076193 +.00000554 +00000-0 +00000-0 0 9994 2 25867 070.5086 281.0587 6935403 240.0058 000.4518 00.37807014006662 ____________________________________________________________________ These 2-Line ...

[TLELIST] Current TLEs

Sent September 19th 2018

HST 1 20580U 90037B 18262.23579954 .00000450 00000-0 16561-4 0 9999 2 20580 28.4688 213.3674 0002903 75.5187 62.3527 15.09095859359694 ISS (ZARYA) 1 25544U 98067A 18262.49718446 .00001122 00000-0 24420-4 0 9994 2 25544 51.6406 268.7164 0004627 172.5005 286.0274 15.53865682133181 CXO 1 25867U 99040B 18264.48995508 .00000554 00000-0 00000+0 0 9992 2 25867 70.5085 281.0588 6935423 240.0056 0.3413 0.37806667 17794 ____________________________________________________________________ These 2-Line ...

[TLELIST] Current TLEs

Sent September 17th 2018

HST 1 20580U 90037B 18259.39105812 .00000507 00000-0 20043-4 0 9993 2 20580 28.4686 232.1746 0002859 46.5712 85.9275 15.09094358359260 ISS (ZARYA) 1 25544U 98067A 18260.38221443 .00001795 00000-0 34683-4 0 9994 2 25544 51.6412 279.2534 0004828 165.9553 333.7967 15.53860928132853 CXO 1 25867U 99040B 18261.84643712 +.00000476 +00000-0 +00000-0 0 9990 2 25867 070.5303 281.0971 6935045 240.0914 000.4187 00.37803187006652 ____________________________________________________________________ These 2-Line ...

[TLELIST] Current TLEs

Sent September 16th 2018

HST 1 20580U 90037B 18258.33481910 +.00000518 +00000-0 +20766-4 0 9996 2 20580 028.4686 239.1578 0002826 035.7540 107.1034 15.09093737359016 ISS (ZARYA) 1 25544U 98067A 18259.53870007 .00001889 00000-0 36125-4 0 9992 2 25544 51.6414 283.4567 0004925 163.7733 294.3250 15.53857626132726 CXO 1 25867U 99040B 18261.84586896 .00000476 00000-0 00000+0 0 9998 2 25867 70.5303 281.0971 6935033 240.0914 0.3409 0.37803364 17788 ____________________________________________________________________ These 2-Line ...

[TLELIST] Current TLEs

Sent September 15th 2018

HST 1 20580U 90037B 18258.26460353 .00000514 00000-0 20484-4 0 9999 2 20580 28.4686 239.6219 0002816 35.0398 85.5988 15.09093654359099 ISS (ZARYA) 1 25544U 98067A 18258.45259757 .00001765 00000-0 34236-4 0 9999 2 25544 51.6411 288.8692 0005002 159.7669 338.7777 15.53851968132552 CXO 1 25867U 99040B 18259.20163408 .00000421 00000-0 00000+0 0 9995 2 25867 70.5528 281.1428 6935696 240.1697 0.3287 0.37803764 17776 ____________________________________________________________________ These 2-Line ...

[TLELIST] Current TLEs

Sent September 14th 2018

HST 1 20580U 90037B 18257.05204441 .00000447 00000-0 16356-4 0 9997 2 20580 28.4695 247.6382 0002787 19.9205 340.1471 15.09092458358901 ISS (ZARYA) 1 25544U 98067A 18257.22648057 .00001600 00000-0 31731-4 0 9993 2 25544 51.6415 294.9796 0005097 155.5021 319.7737 15.53846126132363 CXO 1 25867U 99040B 18259.20163408 .00000421 00000-0 00000+0 0 9995 2 25867 70.5528 281.1428 6935696 240.1697 0.3287 0.37803764 17776 ____________________________________________________________________ These 2-Line ...

[TLELIST] Current TLEs

Sent September 13th 2018

HST 1 20580U 90037B 18256.19230228 .00000522 00000-0 20966-4 0 9999 2 20580 28.4700 253.3271 0002452 10.8409 349.2239 15.09092511358771 ISS (ZARYA) 1 25544U 98067A 18256.12136005 .00001326 00000-0 27557-4 0 9992 2 25544 51.6417 300.4866 0005072 151.7159 257.5939 15.53840410132193 CXO 1 25867U 99040B 18256.55619736 .00000415 00000-0 00000+0 0 9993 2 25867 70.5836 281.2062 6937069 240.2280 0.1866 0.37807771 17760 ____________________________________________________________________ These 2-Line ...

[TLELIST] Current TLEs

Sent September 12th 2018

HST 1 20580U 90037B 18255.39869378 .00000513 00000-0 20444-4 0 9995 2 20580 28.4700 258.5718 0002544 2.6326 357.4270 15.09091904358651 ISS (ZARYA) 1 25544U 98067A 18255.42241459 .00001087 00000-0 23908-4 0 9994 2 25544 51.6418 303.9704 0004960 148.1886 308.7471 15.53836633132085 CXO 1 25867U 99040B 18256.55619736 .00000415 00000-0 00000+0 0 9993 2 25867 70.5836 281.2062 6937069 240.2280 0.1866 0.37807771 17760 ____________________________________________________________________ These 2-Line ...

[TLELIST] Current TLEs

Sent September 11th 2018

HST 1 20580U 90037B 18254.23914352 .00000406 00000-0 13820-4 0 9991 2 20580 28.4690 266.2355 0002696 352.4014 175.6541 15.09090684358486 ISS (ZARYA) 1 25544U 98067A 18254.39847883 .00001076 00000-0 23754-4 0 9999 2 25544 51.6420 309.0729 0005051 144.5177 340.9228 15.53833263131923 CXO 1 25867U 99040B 18256.55619736 .00000415 00000-0 00000+0 0 9993 2 25867 70.5836 281.2062 6937069 240.2280 0.1866 0.37807771 17760 ____________________________________________________________________ These 2-Line ...

[TLELIST] Current TLEs

Sent September 10th 2018

HST 1 20580U 90037B 18253.23221038 .00000382 00000-0 12345-4 0 9996 2 20580 28.4690 272.8922 0002615 341.2308 105.5932 15.09090049358326 ISS (ZARYA) 1 25544U 98067A 18253.50991898 .00001340 00000-0 27777-4 0 9990 2 25544 51.6422 313.5016 0005054 142.0189 49.7069 15.53831457131787 CXO 1 25867U 99040B 18253.91052763 .00000459 00000-0 00000+0 0 9999 2 25867 70.6236 281.2870 6937145 240.2650 0.0752 0.37810137 17750 ____________________________________________________________________ These 2-Line ...

< < Previous

Index

 

this list's archives:

(archive rss , atom rss/atom )

Administration